Location: Newark
(60.7728°N, 46.2261°E)
Time: 09:59:15
(UTC+00:00)

ISS - Pass Details

Date: 24 September 2019
Orbit: 411 x 421 km, 51.6° (Epoch: 16 October)

Event Time Altitude Azimuth Distance (km) Brightness Sun altitude
Rises 16:16:47 0° 219° (SW) 2,340 0.3 -11.2°
Reaches altitude 10° 16:19:42 10° 191° (S) 1,481 -1.1 -11.5°
Maximum altitude 16:21:20 13° 161° (SSE) 1,304 -1.6 -11.7°
Enters shadow 16:21:47 13° 152° (SSE) 1,318 -1.7 -11.8°
